Location: Härggis
(46.9540°N, 8.4897°E)
Time: 17:41:13
(UTC+00:00)

SL-14 R/B - Pass Details

Date: 28 September 2022
Orbit: 516 x 551 km, 82.4° (Epoch: 03 December)

Event Time Altitude Azimuth Distance (km) Brightness Sun altitude
Rises 18:46:21 0° 347° (NNW) 2,687 7.2 -16.8°
Reaches altitude 10° 18:48:31 10° 344° (NNW) 1,798 6.3 -17.1°
Maximum altitude 18:52:25 62° 264° (W) 609 3.7 -17.8°
Drops below altitude 10° 18:56:20 10° 183° (S) 1,803 5.8 -18.4°
Enters shadow 18:57:31 - 182° (S) 2,292 6.3 -18.6°
